Location: Newark
(58.9986°N, 38.5006°E)
Time: 07:51:21
(UTC+00:00)

Explorer 7 - Pass Details

Date: 27 April 2021
Orbit: 484 x 677 km, 50.3° (Epoch: 11 May)

Event Time Altitude Azimuth Distance (km) Brightness Sun altitude
Rises 17:49:56 0° 252° (WSW) 2,643 10.8 -5.1°
Reaches altitude 10° 17:52:21 10° 239° (WSW) 1,785 9.7 -5.4°
Maximum altitude 17:55:40 24° 184° (S) 1,153 8.2 -5.7°
Drops below altitude 10° 17:59:09 10° 129° (SE) 1,880 8.8 -6.0°
Enters shadow 17:59:45 - 125° (SE) 2,080 9.1 -6.1°
